Location: Key Biscayne
(25.6930°N, 80.1630°W)
Time: 07:29:58
(UTC-05:00)

Vanguard 1 - Pass Details

Date: 17 November 2017
Orbit: 650 x 3833 km, 34.2° (Epoch: 10 December)

Event Time Altitude Azimuth Distance (km) Brightness Sun altitude
Rises 20:16:09 0° 295° (WNW) 2,977 13.3 -36.9°
Reaches altitude 10° 20:18:20 10° 304° (NW) 2,143 12.3 -37.4°
Enters shadow 20:18:57 14° 308° (NW) 1,931 12.0 -37.6°
